[[{"header":{"parameterUnit":"m.s-1","parameterCategory":2,"la1":30.2991,"la2":30.254,"lo1":-89.0895,"lo2":-89.0444,"dy":0.0017,"dx":0.0017,"nx":28,"ny":28,"refTime":"2025-11-07T03:00:00:Z","depth":"0","parameterNumber":2,"parameterNumberName":"U-component_of_CURRENTS"},"data":[0,0,0,0,0,0,0,0,0,0,0,0,0,0,0,0,0,0,0,0,0,0,0,0,0,0,0,0,0,0,0,0,0,0,0,0,0,0,0,0,0,0,0,0,0,0,0,0,0,0,0,0,0,0,0,0,0,0,0.1933,0.1934,0,0.1986,0.1986,0.1987,0.1997,0.1997,0.1997,0.1997,0.2002,0.2003,0.2003,0,0,0,0,0,0,0,0,0,0,0,0,0,0.1843,0.1844,0.1933,0.1934,0.1935,0.1986,0.1986,0.1987,0.1998,0.1997,0.1997,0.1997,0.2002,0.2003,0.2003,0,0,0,0,0,0,0,0,0,0,0,0,0,0.1885,0.1844,0.1933,0.1948,0.195,0.1986,0.1986,0.1987,0.1998,0.1997,0.1997,0.1997,0.2002,0.2003,0.2003,0.2013,0,0,0.2005,0.2005,0,0,0,0,0,0,0,0,0.1883,0.1888,0.1945,0.1947,0.1949,0.1987,0.1957,0.1994,0.1998,0.1977,0.1997,0.1996,0.1994,0.1996,0.2004,0.2013,0.2013,0.2005,0.2005,0.2005,0.2006,0,0,0,0,0,0,0,0.188,0.1886,0.1952,0.1946,0.1948,0.1952,0.1958,0.1964,0.1984,0.1979,0.198,0.199,0.1995,0.2003,0.2004,0.2013,0.2005,0.2005,0.2006,0.2006,0.2063,0.2064,0,0,0,0,0,0,0.1878,0.1884,0.195,0.1953,0.1917,0.1954,0.196,0.1973,0.1985,0.1988,0.199,0.199,0.2003,0.2003,0.2004,0.2034,0.2005,0.2006,0.2006,0.2061,0.2063,0.2064,0,0,0,0,0,0,0.1876,0.1884,0.1948,0.1921,0.193,0.1956,0.1971,0.1974,0.1985,0.1995,0.1996,0.1997,0.2002,0.2003,0.202,0.2033,0.2006,0.2007,0.206,0.2062,0.2064,0.2082,0,0,0,0,0,0,0.1873,0.1883,0.1888,0.1921,0.1931,0.1971,0.1971,0.1976,0.1992,0.1993,0.2001,0.2002,0.2002,0.202,0.2021,0.2034,0.2007,0.2058,0.2061,0.2063,0.208,0.2084,0.2088,0,0,0,0,0,0.187,0.1877,0.1888,0.1896,0.1939,0.1972,0.1977,0.1993,0.1993,0.2001,0.2012,0.2001,0.2035,0.2021,0.2022,0.2035,0.2057,0.206,0.2063,0.2078,0.2083,0.2088,0,0,0,0,0,0,0.1833,0.188,0.1893,0.1912,0.1942,0.1974,0.1983,0.1995,0.2011,0.201,0.2014,0.2016,0.2038,0.2037,0.2022,0.2061,0.2046,0.2049,0.2057,0.2062,0.2066,0.205,0.2007,0,0,0,0,0,0.1831,0.1853,0.1894,0.191,0.1925,0.1955,0.1969,0.1984,0.2004,0.2011,0.2018,0.2031,0.2051,0.2055,0.2069,0.2086,0.2149,0.2097,0.2101,0.2104,0.2094,0.2159,0.2168,0.2073,0.2073,0.2073,0,0,0.1818,0.185,0.186,0.1904,0.1927,0.1952,0.1962,0.1987,0.2006,0.2008,0.2029,0.2044,0.206,0.2084,0.2094,0.2083,0.2193,0.2108,0.211,0.2098,0.2162,0.2172,0.218,0.2075,0.2074,0.2074,0,0,0.1812,0.1836,0.1855,0.1884,0.1926,0.1948,0.1956,0.1993,0.2007,0.2034,0.2046,0.2067,0.209,0.2106,0.2117,0.215,0.2213,0.2161,0.2162,0.2226,0.2234,0.2241,0.2454,0.248,0.2159,0.2159,0.2159,0,0.1794,0.1829,0.1863,0.1891,0.1913,0.1947,0.1968,0.1992,0.2028,0.2041,0.2041,0.2094,0.21,0.2138,0.2148,0.2157,0.2253,0.214,0.223,0.2238,0.2245,0.2461,0.2489,0.216,0.216,0.216,0.216,0,0.1808,0.1834,0.1847,0.1897,0.1922,0.1947,0.1988,0.2009,0.2029,0.2053,0.2094,0.2116,0.2145,0.2156,0.2158,0.2213,0.2295,0.2232,0.2215,0.2256,0.2483,0.2512,0.2162,0.2161,0.2161,0.2161,0,0,0.1773,0.1843,0.1848,0.1874,0.1929,0.1953,0.1985,0.2026,0.2062,0.2084,0.2137,0.215,0.2164,0.2178,0.2195,0.2236,0.2405,0.2252,0.2254,0.2463,0.2675,0.2699,0.2736,0.2351,0.2353,0.2355,0.2858,0,0.1774,0.1823,0.1857,0.1898,0.1926,0.1966,0.1999,0.2038,0.2082,0.2143,0.2165,0.2228,0.2175,0.222,0.224,0.2373,0.2463,0.2283,0.2603,0.2616,0.2627,0.2759,0.2727,0.3163,0.2886,0.2891,0.2895,0,0.1781,0.1816,0.1853,0.1915,0.193,0.1955,0.2023,0.2062,0.2142,0.2182,0.2223,0.2273,0.2373,0.2304,0.2534,0.243,0.2543,0.2632,0.2652,0.2668,0.2688,0.3053,0.3227,0.3152,0.294,0.2936,0.2933,0,0.1756,0.1815,0.1844,0.1865,0.1935,0.1954,0.1991,0.2063,0.2132,0.223,0.2326,0.2397,0.2531,0.2607,0.2785,0.2683,0.3073,0.2961,0.3112,0.3124,0.3152,0.3158,0.3269,0.3099,0.3098,0.3097,0.3095,0,0.1756,0.1778,0.1834,0.1853,0.1893,0.1944,0.2016,0.2057,0.218,0.2294,0.2351,0.2494,0.26,0.2822,0.2893,0.3155,0.3179,0.3167,0.3232,0.3172,0.3173,0.3146,0.3077,0.3116,0.3112,0.3108,0.3105,0,0.1729,0.1767,0.1803,0.1865,0.1885,0.1914,0.2039,0.211,0.2228,0.2399,0.2457,0.2672,0.2945,0.3105,0.3353,0.3377,0.3508,0.3631,0.3634,0.3681,0.3639,0.3572,0.3652,0.3525,0.389,0.3893,0.3896,0,0.172,0.1736,0.1799,0.1833,0.186,0.1929,0.1991,0.2104,0.2212,0.2508,0.2609,0.2932,0.3123,0.3562,0.3678,0.3917,0.3706,0.4014,0.3723,0.3679,0.3655,0.3448,0.3315,0.3873,0.3875,0.3877,0.3878,0,0.1709,0.1728,0.1768,0.1842,0.1898,0.1971,0.2079,0.2167,0.2349,0.2508,0.2772,0.2957,0.3391,0.3619,0.3938,0.4029,0.3831,0.4054,0.398,0.3629,0.3443,0.3338,0.3607,0.3895,0.3893,0.3892,0.3891,0.3891,0.1712,0.1737,0.1814,0.1874,0.1936,0.2023,0.206,0.2204,0.236,0.2586,0.2804,0.3054,0.3503,0.3907,0.3984,0.4127,0.3949,0.4045,0.3999,0.3816,0.3543,0.3901,0.4215,0.4215,0.4216,0.4216,0.4216,0,0.1762,0.1805,0.1859,0.1935,0.198,0.202,0.2133,0.217,0.2301,0.255,0.2742,0.3204,0.3546,0.3848,0.4186,0.4117,0.3864,0.4025,0.3715,0.3595,0.3957,0.3794,0.4058,0.4058,0.4058,0.4058,0.4059,0.4059,0.1813,0.1886,0.191,0.198,0.2009,0.2042,0.2075,0.2123,0.2267,0.2502,0.273,0.2965,0.3504,0.4074,0.4215,0.4115,0.3745,0.3674,0.3529,0.3794,0.3788,0.3783,0.361,0.3832,0.3831,0.304,0.3034,0.303]},{"header":{"parameterUnit":"m.s-1","parameterCategory":2,"la1":30.2991,"la2":30.254,"lo1":-89.0895,"lo2":-89.0444,"dy":0.0017,"dx":0.0017,"nx":28,"ny":28,"refTime":"2025-11-07T03:00:00:Z","depth":"0","parameterNumber":3,"parameterNumberName":"V-component_of_CURRENTS"},"data":[0,0,0,0,0,0,0,0,0,0,0,0,0,0,0,0,0,0,0,0,0,0,0,0,0,0,0,0,0,0,0,0,0,0,0,0,0,0,0,0,0,0,0,0,0,0,0,0,0,0,0,0,0,0,0,0,0,0,-0.0175,-0.0175,0,-0.0228,-0.0229,-0.023,-0.0273,-0.0273,-0.0274,-0.0274,-0.0367,-0.0369,-0.0371,0,0,0,0,0,0,0,0,0,0,0,0,0,-0.0142,-0.0142,-0.0175,-0.0175,-0.0176,-0.0228,-0.0229,-0.023,-0.0273,-0.0273,-0.0274,-0.0274,-0.0366,-0.0368,-0.0371,0,0,0,0,0,0,0,0,0,0,0,0,0,-0.0173,-0.0143,-0.0175,-0.0203,-0.0206,-0.0228,-0.0229,-0.023,-0.0273,-0.0273,-0.0274,-0.0274,-0.0365,-0.0368,-0.0371,-0.0379,0,0,-0.0381,-0.0382,0,0,0,0,0,0,0,0,-0.0171,-0.0174,-0.0198,-0.0201,-0.0205,-0.0244,-0.0252,-0.0282,-0.0272,-0.0248,-0.0274,-0.0275,-0.0328,-0.0335,-0.0344,-0.0383,-0.0387,-0.0381,-0.0383,-0.0384,-0.0385,0,0,0,0,0,0,0,-0.0169,-0.0172,-0.0196,-0.0199,-0.0203,-0.0225,-0.0229,-0.0258,-0.0285,-0.025,-0.0253,-0.0258,-0.0331,-0.034,-0.0346,-0.0389,-0.0381,-0.0384,-0.0386,-0.0387,-0.0449,-0.0448,0,0,0,0,0,0,-0.0158,-0.017,-0.0195,-0.0198,-0.0188,-0.0225,-0.023,-0.0231,-0.0284,-0.0293,-0.0258,-0.026,-0.0335,-0.0342,-0.035,-0.0378,-0.0384,-0.0387,-0.0389,-0.0449,-0.0449,-0.0448,0,0,0,0,0,0,-0.0158,-0.016,-0.0193,-0.0185,-0.0191,-0.0224,-0.0226,-0.0232,-0.0243,-0.029,-0.0299,-0.0262,-0.0335,-0.0345,-0.0373,-0.0382,-0.0389,-0.0392,-0.0449,-0.0449,-0.0448,-0.0425,0,0,0,0,0,0,-0.0156,-0.0159,-0.0156,-0.0184,-0.0191,-0.0203,-0.0225,-0.0233,-0.0244,-0.0248,-0.0296,-0.0305,-0.0337,-0.0368,-0.0376,-0.0386,-0.0394,-0.045,-0.0449,-0.0449,-0.0426,-0.0424,-0.0422,0,0,0,0,0,-0.0155,-0.015,-0.0155,-0.0159,-0.0185,-0.0203,-0.0208,-0.0235,-0.0244,-0.0247,-0.0278,-0.0304,-0.0371,-0.037,-0.038,-0.0391,-0.045,-0.0449,-0.0449,-0.0427,-0.0424,-0.0422,0,0,0,0,0,0,-0.0132,-0.0154,-0.0161,-0.0162,-0.0179,-0.021,-0.0215,-0.0229,-0.0255,-0.026,-0.0302,-0.0313,-0.034,-0.0363,-0.0361,-0.0405,-0.0414,-0.0415,-0.0394,-0.0392,-0.039,-0.0405,-0.0397,0,0,0,0,0,-0.0124,-0.0129,-0.015,-0.0151,-0.0157,-0.0183,-0.0193,-0.021,-0.0236,-0.0247,-0.0279,-0.0313,-0.0344,-0.0365,-0.0392,-0.0418,-0.0409,-0.0429,-0.0427,-0.0425,-0.0443,-0.0449,-0.045,-0.0446,-0.0446,-0.0446,0,0,-0.0117,-0.0129,-0.0132,-0.0147,-0.0162,-0.0176,-0.0191,-0.0203,-0.0221,-0.0254,-0.0283,-0.0305,-0.0346,-0.0375,-0.039,-0.0398,-0.0406,-0.0425,-0.0423,-0.0442,-0.0449,-0.0449,-0.045,-0.0446,-0.0446,-0.0446,0,0,-0.0112,-0.0112,-0.0119,-0.013,-0.015,-0.0167,-0.0167,-0.0193,-0.021,-0.0234,-0.0263,-0.0291,-0.0332,-0.037,-0.0393,-0.0395,-0.0391,-0.0396,-0.0408,-0.0413,-0.0414,-0.0415,-0.0334,-0.0328,-0.0401,-0.0401,-0.0401,0,-0.0103,-0.0113,-0.0122,-0.0133,-0.0145,-0.016,-0.0173,-0.019,-0.0223,-0.0237,-0.024,-0.0302,-0.0336,-0.0382,-0.039,-0.0394,-0.0365,-0.0415,-0.0411,-0.0412,-0.0413,-0.0331,-0.0325,-0.04,-0.04,-0.04,-0.04,0,-0.0109,-0.0116,-0.0119,-0.014,-0.0151,-0.0161,-0.0184,-0.0196,-0.021,-0.023,-0.0263,-0.0302,-0.0336,-0.0353,-0.0381,-0.0409,-0.0369,-0.0401,-0.0418,-0.0412,-0.0325,-0.0318,-0.0398,-0.0398,-0.0399,-0.0399,0,0,-0.0096,-0.012,-0.0121,-0.0124,-0.0155,-0.0157,-0.0186,-0.0212,-0.02,-0.025,-0.0238,-0.0329,-0.0333,-0.0361,-0.0387,-0.0414,-0.0379,-0.0416,-0.0417,-0.0334,-0.0319,-0.0248,-0.0234,-0.0411,-0.0411,-0.0412,-0.0228,0,-0.0101,-0.0113,-0.0134,-0.0142,-0.0146,-0.017,-0.018,-0.0202,-0.0207,-0.0188,-0.0251,-0.0232,-0.0338,-0.031,-0.0376,-0.0348,-0.0373,-0.0421,-0.034,-0.0336,-0.0275,-0.023,-0.0265,-0.0103,-0.0222,-0.0221,-0.0221,0,-0.0102,-0.011,-0.0119,-0.0123,-0.0125,-0.0129,-0.0124,-0.013,-0.013,-0.012,-0.0154,-0.0156,-0.0183,-0.0256,-0.0288,-0.0305,-0.0335,-0.0341,-0.0334,-0.0286,-0.0257,-0.0143,-0.0088,-0.0355,-0.0211,-0.0212,-0.0213,0,-0.0072,-0.0096,-0.0097,-0.0102,-0.0113,-0.0112,-0.0108,-0.0109,-0.0041,-0.0035,0.0074,-0.004,0.0063,-0.008,-0.0093,-0.0181,-0.0077,-0.019,-0.0165,-0.0155,-0.0181,-0.0174,-0.0386,-0.0256,-0.0256,-0.0257,-0.0257,0,-0.0061,-0.0056,-0.0073,-0.0066,-0.0029,-0.0059,0.0024,0.0004,0.0094,0.0261,0.0143,0.0313,0.0116,0.0164,0.0001,0.0004,0.0002,-0.0149,-0.0119,-0.0162,-0.0157,-0.0389,-0.0541,-0.025,-0.0251,-0.0253,-0.0254,0,-0.0006,-0.0034,-0.0011,-0.0016,-0.0006,0.0037,0.0166,0.027,0.0316,0.0556,0.0605,0.0665,0.0727,0.055,0.0455,0.0258,0.0039,0.0149,0.0163,0.0187,-0.0128,-0.0274,-0.0357,-0.0505,0.0166,0.0168,0.0171,0,0.0029,0.0036,0.006,0.0129,0.0142,0.0226,0.0332,0.0375,0.0552,0.0826,0.1003,0.1127,0.1273,0.1158,0.0797,0.0544,0.024,0.0346,0.0098,-0.0135,-0.0277,-0.0364,-0.0494,0.0117,0.0118,0.0119,0.012,0,0.0126,0.0131,0.0172,0.0319,0.0427,0.0564,0.0734,0.0907,0.1069,0.1287,0.1646,0.1778,0.1663,0.1419,0.1044,0.0805,0.0127,0.0365,0.0081,-0.0371,-0.0438,-0.0566,0.0048,0.0132,0.0131,0.013,0.0129,0.0129,0.025,0.0333,0.0438,0.0583,0.0718,0.0971,0.114,0.1372,0.1685,0.2056,0.2135,0.2374,0.1921,0.1391,0.1013,0.0275,0.0248,-0.0014,-0.0164,-0.0222,-0.0429,0.0263,0.039,0.039,0.039,0.0391,0.0391,0,0.0489,0.0598,0.0735,0.0958,0.1176,0.117,0.1483,0.1687,0.2094,0.2383,0.2651,0.2605,0.1991,0.1317,0.0325,-0.0198,-0.0462,-0.0478,-0.0711,-0.0822,-0.0242,-0.032,-0.029,-0.029,-0.0289,-0.0289,-0.0289,-0.0289,0.0658,0.0881,0.0959,0.1373,0.1516,0.1818,0.1998,0.225,0.2484,0.2864,0.3017,0.3088,0.261,0.0833,-0.0437,-0.0752,-0.1214,-0.1205,-0.1416,-0.1146,-0.1118,-0.1093,-0.1207,-0.1364,-0.1365,-0.1989,-0.1995,-0.2]}],[{"header":{"parameterUnit":"m.s-1","parameterCategory":2,"la1":30.2991,"la2":30.254,"lo1":-89.0895,"lo2":-89.0444,"dy":0.0017,"dx":0.0017,"nx":28,"ny":28,"refTime":"2025-11-07T03:00:00:Z","depth":"2","parameterNumber":2,"parameterNumberName":"U-component_of_CURRENTS"},"data":[0,0,0,0,0,0,0,0,0,0,0,0,0,0,0,0,0,0,0,0,0,0,0,0,0,0,0,0,0,0,0,0,0,0,0,0,0,0,0,0,0,0,0,0,0,0,0,0,0,0,0,0,0,0,0,0,0,0,0.1856,0.1857,0,0.1877,0.1876,0.1876,0.1879,0.1879,0.188,0.188,0.1882,0.1882,0.1881,0,0,0,0,0,0,0,0,0,0,0,0,0,0.1764,0.1765,0.1856,0.1857,0.1858,0.1877,0.1876,0.1876,0.1878,0.1879,0.188,0.188,0.1882,0.1882,0.1881,0,0,0,0,0,0,0,0,0,0,0,0,0,0.1789,0.1766,0.1856,0.1868,0.1869,0.1877,0.1876,0.1876,0.1878,0.1879,0.188,0.1881,0.1882,0.1882,0.1881,0.1861,0,0,0.1879,0.1879,0,0,0,0,0,0,0,0,0.1787,0.1791,0.1865,0.1867,0.1869,0.1883,0.1845,0.1873,0.1878,0.1866,0.188,0.1881,0.1885,0.1884,0.1875,0.1861,0.1861,0.1879,0.1879,0.1878,0.1878,0,0,0,0,0,0,0,0.1786,0.179,0.1856,0.1866,0.1869,0.1854,0.1858,0.1849,0.1864,0.1868,0.187,0.1885,0.1885,0.1876,0.1875,0.1861,0.1879,0.1878,0.1878,0.1878,0.1939,0.1941,0,0,0,0,0,0,0.1802,0.1789,0.1856,0.1858,0.1839,0.1855,0.1859,0.1871,0.1865,0.1867,0.1884,0.1885,0.1877,0.1876,0.1876,0.1923,0.1878,0.1878,0.1877,0.1937,0.194,0.1942,0,0,0,0,0,0,0.18,0.1807,0.1855,0.183,0.1836,0.1857,0.187,0.1871,0.1882,0.1879,0.188,0.1896,0.1877,0.1877,0.1883,0.192,0.1877,0.1877,0.1935,0.1938,0.1941,0.1971,0,0,0,0,0,0,0.1797,0.1806,0.1816,0.1831,0.1839,0.1876,0.187,0.1871,0.1893,0.1894,0.189,0.189,0.1878,0.1884,0.1882,0.1919,0.1876,0.1932,0.1936,0.194,0.1968,0.1975,0.1981,0,0,0,0,0,0.1793,0.1805,0.1816,0.1825,0.1853,0.1877,0.1879,0.189,0.1893,0.19,0.1896,0.1891,0.1909,0.1884,0.1882,0.1919,0.1931,0.1935,0.194,0.1965,0.1974,0.1981,0,0,0,0,0,0,0.1765,0.1807,0.182,0.1843,0.1869,0.1881,0.189,0.19,0.1901,0.1904,0.1893,0.1893,0.1924,0.1916,0.1889,0.1954,0.1929,0.1933,0.1949,0.1957,0.1964,0.1952,0.1876,0,0,0,0,0,0.1767,0.1788,0.1825,0.1843,0.1859,0.1876,0.1888,0.1901,0.1909,0.1911,0.1913,0.1922,0.1938,0.1941,0.1952,0.1965,0.1988,0.1998,0.2005,0.201,0.2003,0.2053,0.2062,0.1957,0.1957,0.1957,0,0,0.176,0.1788,0.1798,0.184,0.1855,0.188,0.1883,0.1911,0.1931,0.191,0.1932,0.1944,0.1949,0.1975,0.199,0.1972,0.2066,0.2016,0.202,0.201,0.2058,0.2068,0.2077,0.196,0.196,0.1959,0,0,0.1757,0.1784,0.1802,0.1828,0.1872,0.1888,0.1904,0.1933,0.1947,0.1967,0.1973,0.1999,0.2012,0.2026,0.2032,0.2082,0.2104,0.2106,0.2119,0.2168,0.2176,0.2183,0.2274,0.2289,0.2103,0.2103,0.2103,0,0.1746,0.1778,0.1809,0.1837,0.186,0.1896,0.192,0.194,0.1969,0.1983,0.1984,0.2031,0.2035,0.2071,0.2091,0.2096,0.214,0.2081,0.2174,0.2182,0.2189,0.2279,0.2295,0.2105,0.2105,0.2105,0.2105,0,0.1759,0.1788,0.1802,0.185,0.1877,0.1905,0.1948,0.1978,0.2003,0.2023,0.2072,0.2081,0.2108,0.213,0.2117,0.2181,0.2206,0.218,0.2146,0.2201,0.2294,0.231,0.2108,0.2107,0.2107,0.2106,0,0,0.1728,0.1796,0.1803,0.183,0.1889,0.1913,0.1956,0.2003,0.2045,0.2072,0.2122,0.2144,0.216,0.217,0.2181,0.2214,0.2315,0.2216,0.2217,0.2293,0.2465,0.2415,0.2428,0.2304,0.2306,0.2308,0.2526,0,0.1729,0.1777,0.1812,0.1858,0.1887,0.1935,0.1974,0.2022,0.2072,0.2133,0.2156,0.2213,0.2175,0.2212,0.2233,0.2306,0.2352,0.2261,0.241,0.2415,0.2352,0.2442,0.2254,0.2425,0.2542,0.2545,0.2547,0,0.1733,0.1768,0.1808,0.1875,0.1892,0.1923,0.2005,0.2048,0.2134,0.2176,0.2223,0.2263,0.2331,0.2292,0.2413,0.2361,0.2409,0.2451,0.246,0.2403,0.2393,0.2382,0.245,0.2574,0.2571,0.257,0.2568,0,0.1704,0.1767,0.1798,0.1821,0.1899,0.1926,0.1971,0.2055,0.212,0.2222,0.2295,0.2353,0.2436,0.2475,0.2554,0.2502,0.2701,0.2643,0.2646,0.2646,0.2508,0.249,0.2718,0.2718,0.2718,0.2717,0.2716,0,0.17,0.1727,0.1789,0.1811,0.1864,0.1915,0.1994,0.2053,0.2164,0.225,0.2317,0.2412,0.2484,0.2599,0.2619,0.2705,0.2759,0.2672,0.2694,0.252,0.2501,0.2623,0.2609,0.2725,0.2723,0.2722,0.272,0,0.1676,0.1712,0.1758,0.1829,0.1856,0.1897,0.2017,0.2075,0.2186,0.2313,0.2358,0.2515,0.2645,0.2724,0.2849,0.2819,0.2888,0.2897,0.2711,0.2703,0.2789,0.2775,0.2928,0.2928,0.2928,0.2928,0.2928,0,0.1671,0.1688,0.1768,0.1797,0.1833,0.1906,0.1956,0.2072,0.2147,0.2364,0.2421,0.2611,0.2693,0.2882,0.2888,0.295,0.295,0.2805,0.263,0.2803,0.2809,0.2795,0.2781,0.2501,0.2498,0.2495,0.2493,0,0.1657,0.1684,0.1721,0.1784,0.1834,0.1907,0.1991,0.2054,0.2194,0.2288,0.2442,0.2537,0.2729,0.2715,0.2811,0.2796,0.2768,0.2746,0.3008,0.245,0.241,0.2413,0.2412,0.2467,0.2469,0.2471,0.2473,0.2474,0.1642,0.1664,0.1708,0.1769,0.1826,0.1886,0.1904,0.1981,0.2065,0.2173,0.235,0.242,0.2533,0.2555,0.2528,0.2517,0.2664,0.2548,0.2553,0.2562,0.2446,0.2404,0.2444,0.2446,0.2448,0.245,0.2452,0,0.161,0.1641,0.169,0.1748,0.1773,0.1842,0.1903,0.1876,0.1888,0.2041,0.2128,0.2056,0.211,0.221,0.2165,0.2191,0.2125,0.2098,0.1998,0.2028,0.2054,0.1905,0.1764,0.1761,0.1758,0.1756,0,0,0.1588,0.161,0.164,0.1673,0.1718,0.1717,0.1723,0.1661,0.1712,0.1708,0.1758,0.1995,0.2152,0.1914,0.192,0.1836,0.1896,0.1766,0.2331,0.2243,0.2265,0.2346,0.2157,0,0,0,0,0]},{"header":{"parameterUnit":"m.s-1","parameterCategory":2,"la1":30.2991,"la2":30.254,"lo1":-89.0895,"lo2":-89.0444,"dy":0.0017,"dx":0.0017,"nx":28,"ny":28,"refTime":"2025-11-07T03:00:00:Z","depth":"2","parameterNumber":3,"parameterNumberName":"V-component_of_CURRENTS"},"data":[0,0,0,0,0,0,0,0,0,0,0,0,0,0,0,0,0,0,0,0,0,0,0,0,0,0,0,0,0,0,0,0,0,0,0,0,0,0,0,0,0,0,0,0,0,0,0,0,0,0,0,0,0,0,0,0,0,0,-0.0235,-0.0236,0,-0.028,-0.0281,-0.0281,-0.0318,-0.0319,-0.0319,-0.032,-0.0402,-0.0403,-0.0405,0,0,0,0,0,0,0,0,0,0,0,0,0,-0.0184,-0.0184,-0.0235,-0.0236,-0.0237,-0.028,-0.0281,-0.0281,-0.0318,-0.0319,-0.032,-0.032,-0.0401,-0.0403,-0.0405,0,0,0,0,0,0,0,0,0,0,0,0,0,-0.0212,-0.0184,-0.0235,-0.0262,-0.0266,-0.028,-0.0281,-0.0281,-0.0318,-0.0319,-0.032,-0.0321,-0.0401,-0.0403,-0.0405,-0.0401,0,0,-0.0413,-0.0414,0,0,0,0,0,0,0,0,-0.0211,-0.0214,-0.0258,-0.0261,-0.0264,-0.0297,-0.0293,-0.0324,-0.0318,-0.0295,-0.032,-0.0321,-0.0371,-0.0376,-0.0378,-0.0405,-0.0408,-0.0413,-0.0414,-0.0415,-0.0416,0,0,0,0,0,0,0,-0.0209,-0.0212,-0.025,-0.0258,-0.0262,-0.0274,-0.0278,-0.0298,-0.0326,-0.0297,-0.0301,-0.031,-0.0373,-0.0376,-0.038,-0.041,-0.0413,-0.0415,-0.0416,-0.0417,-0.0487,-0.0487,0,0,0,0,0,0,-0.0207,-0.021,-0.0249,-0.0252,-0.0242,-0.0274,-0.0279,-0.0283,-0.0325,-0.0333,-0.0309,-0.0311,-0.0371,-0.0378,-0.0384,-0.0414,-0.0415,-0.0418,-0.0419,-0.0487,-0.0487,-0.0488,0,0,0,0,0,0,-0.0206,-0.021,-0.0247,-0.0235,-0.0241,-0.0274,-0.0278,-0.0284,-0.0294,-0.0334,-0.0342,-0.0314,-0.0372,-0.038,-0.0403,-0.0416,-0.0419,-0.0421,-0.0486,-0.0487,-0.0487,-0.0454,0,0,0,0,0,0,-0.0204,-0.0209,-0.0209,-0.0234,-0.0241,-0.0257,-0.0278,-0.0284,-0.0298,-0.0302,-0.0341,-0.0349,-0.0373,-0.0399,-0.0406,-0.042,-0.0423,-0.0486,-0.0486,-0.0487,-0.0455,-0.0453,-0.0452,0,0,0,0,0,-0.0202,-0.0198,-0.0208,-0.0213,-0.024,-0.0257,-0.0261,-0.0286,-0.0298,-0.0298,-0.0325,-0.0348,-0.041,-0.0401,-0.0408,-0.0424,-0.0485,-0.0486,-0.0487,-0.0455,-0.0454,-0.0453,0,0,0,0,0,0,-0.0173,-0.0202,-0.0214,-0.0218,-0.0237,-0.0264,-0.0268,-0.0284,-0.0303,-0.0309,-0.0344,-0.0354,-0.0383,-0.0404,-0.0394,-0.0448,-0.0455,-0.0458,-0.0429,-0.0428,-0.0427,-0.0435,-0.0425,0,0,0,0,0,-0.0167,-0.0174,-0.0201,-0.0205,-0.0212,-0.0238,-0.0248,-0.0265,-0.0288,-0.0298,-0.0326,-0.036,-0.039,-0.0408,-0.0436,-0.0456,-0.0477,-0.0475,-0.0474,-0.0473,-0.0485,-0.0513,-0.0515,-0.0491,-0.0491,-0.0491,0,0,-0.0158,-0.0175,-0.0179,-0.02,-0.0215,-0.0226,-0.0246,-0.0259,-0.0275,-0.0304,-0.0328,-0.0354,-0.0394,-0.0422,-0.0438,-0.0442,-0.0489,-0.0474,-0.0473,-0.0486,-0.0514,-0.0516,-0.0518,-0.0491,-0.0491,-0.0491,0,0,-0.0145,-0.0156,-0.0159,-0.0173,-0.0198,-0.0215,-0.0218,-0.0246,-0.0263,-0.0285,-0.0316,-0.0348,-0.0387,-0.0422,-0.0444,-0.0454,-0.048,-0.0465,-0.0468,-0.0494,-0.0496,-0.0498,-0.0515,-0.0519,-0.0466,-0.0466,-0.0466,0,-0.0134,-0.014,-0.0161,-0.0168,-0.0179,-0.0209,-0.0213,-0.0234,-0.0268,-0.0284,-0.0292,-0.036,-0.0392,-0.0436,-0.0445,-0.0453,-0.0467,-0.0466,-0.0491,-0.0494,-0.0497,-0.0514,-0.0519,-0.0464,-0.0465,-0.0465,-0.0465,0,-0.0126,-0.0131,-0.0132,-0.0153,-0.0165,-0.0171,-0.0205,-0.0225,-0.0248,-0.0273,-0.0316,-0.0355,-0.0395,-0.0415,-0.0436,-0.0477,-0.0479,-0.0482,-0.049,-0.0497,-0.0515,-0.0521,-0.0462,-0.0463,-0.0463,-0.0464,0,0,-0.0101,-0.0121,-0.0122,-0.0125,-0.0155,-0.0163,-0.0193,-0.0224,-0.0232,-0.0282,-0.0291,-0.0369,-0.0387,-0.0415,-0.0444,-0.048,-0.0508,-0.049,-0.0492,-0.0501,-0.0558,-0.0551,-0.0556,-0.051,-0.0511,-0.0512,-0.0558,0,-0.0087,-0.0088,-0.0107,-0.011,-0.011,-0.0148,-0.0165,-0.0201,-0.0225,-0.0237,-0.0304,-0.0315,-0.0386,-0.0383,-0.0441,-0.0477,-0.0524,-0.0495,-0.0557,-0.056,-0.0547,-0.0563,-0.0521,-0.0558,-0.0563,-0.0564,-0.0565,0,-0.0072,-0.0074,-0.007,-0.0081,-0.0084,-0.0094,-0.0118,-0.0134,-0.0174,-0.0184,-0.0232,-0.026,-0.0325,-0.036,-0.048,-0.0454,-0.0517,-0.0558,-0.056,-0.0574,-0.0564,-0.0556,-0.0568,-0.0575,-0.0574,-0.0573,-0.0573,0,-0.0036,-0.0046,-0.0039,-0.0044,-0.0065,-0.0076,-0.0088,-0.0122,-0.0104,-0.0133,-0.0101,-0.0208,-0.0205,-0.0328,-0.0436,-0.0448,-0.0546,-0.0564,-0.0631,-0.063,-0.062,-0.0617,-0.066,-0.066,-0.066,-0.066,-0.066,0,-0.0008,-0.0003,-0.0022,-0.0017,0.0004,-0.0034,-0.0006,-0.0032,-0.0022,0.0021,-0.0059,-0.0034,-0.0194,-0.0265,-0.0403,-0.053,-0.0527,-0.0643,-0.0647,-0.0606,-0.0601,-0.0639,-0.0636,-0.0662,-0.0661,-0.0661,-0.0661,0,0.0035,0.0019,0.0035,0.0021,0.0025,0.0041,0.0079,0.0109,0.0101,0.0164,0.0173,0.0117,0.0015,-0.0154,-0.0318,-0.0449,-0.0588,-0.0637,-0.0575,-0.0572,-0.0667,-0.0662,-0.0721,-0.0722,-0.0722,-0.0722,-0.0722,0,0.0058,0.0068,0.0083,0.0115,0.0114,0.0144,0.0181,0.0178,0.0228,0.0256,0.0303,0.0238,0.0199,-0.0042,-0.0282,-0.0516,-0.0566,-0.0624,-0.066,-0.0678,-0.0677,-0.0671,-0.0666,-0.0629,-0.0628,-0.0627,-0.0627,0,0.0113,0.0114,0.0133,0.0195,0.0237,0.0307,0.0354,0.0408,0.0416,0.0467,0.0507,0.0482,0.0266,0.0053,-0.0253,-0.0418,-0.0589,-0.0621,-0.0651,-0.0617,-0.0594,-0.0591,-0.0588,-0.0623,-0.0623,-0.0623,-0.0624,-0.0624,0.0159,0.0188,0.0215,0.0275,0.0344,0.0437,0.0492,0.0555,0.0632,0.0693,0.0662,0.0651,0.0393,0.0028,-0.0251,-0.0536,-0.0553,-0.0652,-0.0652,-0.0653,-0.0632,-0.061,-0.0638,-0.0638,-0.0639,-0.0639,-0.0639,0,0.0199,0.0229,0.0297,0.0358,0.0442,0.0479,0.0589,0.0646,0.0727,0.0813,0.0842,0.0652,0.0412,0.012,-0.029,-0.0555,-0.0582,-0.0633,-0.0609,-0.0612,-0.0614,-0.059,-0.0586,-0.0586,-0.0587,-0.0587,0,0,0.0217,0.0269,0.0295,0.0415,0.0483,0.0597,0.0663,0.076,0.0843,0.0922,0.0947,0.0904,0.0543,0.0263,-0.0107,-0.0336,-0.0411,-0.0383,-0.0399,-0.033,-0.0329,-0.0601,-0.0564,0,0,0,0,0]}],[{"header":{"parameterUnit":"m.s-1","parameterCategory":2,"la1":30.2991,"la2":30.254,"lo1":-89.0895,"lo2":-89.0444,"dy":0.0017,"dx":0.0017,"nx":28,"ny":28,"refTime":"2025-11-07T03:00:00:Z","depth":"4","parameterNumber":2,"parameterNumberName":"U-component_of_CURRENTS"},"data":[0,0,0,0,0,0,0,0,0,0,0,0,0,0,0,0,0,0,0,0,0,0,0,0,0,0,0,0,0,0,0,0,0,0,0,0,0,0,0,0,0,0,0,0,0,0,0,0,0,0,0,0,0,0,0,0,0,0,0.0942,0.0942,0,0.101,0.1011,0.1011,0.1066,0.1067,0.1067,0.1068,0.113,0.1131,0.1132,0,0,0,0,0,0,0,0,0,0,0,0,0,0.0855,0.0856,0.0941,0.0942,0.0943,0.101,0.1011,0.1012,0.1066,0.1067,0.1067,0.1068,0.113,0.1131,0.1132,0,0,0,0,0,0,0,0,0,0,0,0,0,0.0904,0.0856,0.0941,0.0979,0.0983,0.101,0.1011,0.1012,0.1066,0.1067,0.1068,0.1068,0.1129,0.1131,0.1133,0.1126,0,0,0.1138,0.1139,0,0,0,0,0,0,0,0,0.0902,0.0907,0.0972,0.0976,0.0981,0.1031,0.1003,0.105,0.1066,0.1034,0.1068,0.1069,0.1096,0.11,0.1111,0.1129,0.1131,0.1138,0.1139,0.114,0.114,0,0,0,0,0,0,0,0.0898,0.0905,0.0968,0.0973,0.0978,0.0991,0.0999,0.1012,0.1059,0.1037,0.1041,0.1049,0.1098,0.1109,0.1113,0.1132,0.1138,0.1139,0.114,0.1141,0.1216,0.1217,0,0,0,0,0,0,0.089,0.0902,0.0966,0.097,0.0943,0.0992,0.1001,0.1014,0.1059,0.1067,0.1048,0.1051,0.1106,0.1111,0.1115,0.1179,0.114,0.1141,0.1142,0.1215,0.1216,0.1217,0,0,0,0,0,0,0.0888,0.0895,0.0963,0.0937,0.0947,0.0992,0.1006,0.1014,0.1049,0.1068,0.1076,0.1076,0.1107,0.1113,0.1153,0.1179,0.1142,0.1144,0.1213,0.1215,0.1216,0.1261,0,0,0,0,0,0,0.0885,0.0894,0.0911,0.0937,0.0948,0.0991,0.1006,0.1015,0.1051,0.1056,0.1094,0.11,0.1108,0.1151,0.1155,0.1181,0.1145,0.1212,0.1214,0.1216,0.1259,0.1264,0.1269,0,0,0,0,0,0.0881,0.0898,0.0912,0.092,0.0967,0.0991,0.0999,0.1033,0.1051,0.1067,0.1101,0.11,0.1165,0.1153,0.1158,0.1184,0.1211,0.1214,0.1216,0.1256,0.1263,0.1269,0,0,0,0,0,0,0.0873,0.0906,0.0921,0.0949,0.0974,0.1001,0.1026,0.1043,0.1082,0.1099,0.1114,0.1122,0.1166,0.1167,0.1153,0.121,0.1187,0.119,0.1216,0.1223,0.1228,0.1238,0.1146,0,0,0,0,0,0.0877,0.0898,0.0927,0.0951,0.0968,0.1,0.102,0.1042,0.1073,0.1093,0.112,0.1149,0.1174,0.1193,0.1212,0.1243,0.1251,0.1262,0.1267,0.1272,0.1283,0.131,0.1319,0.1224,0.1224,0.1224,0,0,0.0879,0.0901,0.0914,0.095,0.0979,0.1003,0.1016,0.1053,0.1077,0.1092,0.1145,0.117,0.1186,0.1226,0.1245,0.1234,0.1304,0.1274,0.1278,0.1287,0.1314,0.1323,0.1331,0.1226,0.1225,0.1225,0,0,0.0885,0.0918,0.0936,0.096,0.1002,0.1021,0.1035,0.1077,0.1105,0.1146,0.117,0.1211,0.1244,0.1269,0.1281,0.1324,0.133,0.1332,0.1371,0.1397,0.1405,0.1412,0.1441,0.1451,0.1336,0.1336,0.1336,0,0.0888,0.0916,0.0945,0.0969,0.0994,0.103,0.1055,0.1084,0.1134,0.1164,0.1168,0.1248,0.1262,0.1316,0.1339,0.1336,0.1357,0.1346,0.1404,0.1412,0.1418,0.1446,0.1456,0.1338,0.1338,0.1338,0.1338,0,0.0901,0.0933,0.095,0.0991,0.1019,0.1049,0.1088,0.113,0.1166,0.1195,0.1264,0.1293,0.1342,0.1353,0.1362,0.1425,0.1427,0.1407,0.1389,0.1431,0.1457,0.1466,0.1342,0.1341,0.134,0.134,0,0,0.0879,0.0945,0.0952,0.0979,0.1037,0.1057,0.111,0.1164,0.1209,0.1259,0.1316,0.1369,0.1402,0.1419,0.1442,0.1472,0.1538,0.1472,0.1472,0.1502,0.1613,0.1547,0.1551,0.1536,0.1538,0.1539,0.1615,0,0.0884,0.0926,0.096,0.1006,0.1036,0.109,0.113,0.1186,0.1241,0.1304,0.1353,0.1417,0.142,0.1465,0.1494,0.1542,0.1565,0.152,0.1567,0.1569,0.1506,0.156,0.1544,0.1622,0.1624,0.1626,0.1627,0,0.088,0.0913,0.0956,0.1023,0.1042,0.1077,0.1163,0.1205,0.1299,0.1347,0.1425,0.147,0.1558,0.1532,0.1628,0.1608,0.1616,0.1631,0.1633,0.1563,0.152,0.157,0.1644,0.1642,0.1641,0.164,0.1639,0,0.0841,0.0908,0.0943,0.0966,0.1044,0.1086,0.1136,0.1227,0.1282,0.1397,0.146,0.1546,0.1618,0.165,0.1708,0.168,0.1793,0.1743,0.1682,0.1677,0.1693,0.1684,0.1776,0.1776,0.1775,0.1775,0.1775,0,0.0822,0.0853,0.0934,0.0954,0.1007,0.1073,0.1148,0.1214,0.132,0.1399,0.1491,0.1569,0.1655,0.1731,0.1741,0.1767,0.1821,0.1706,0.1697,0.171,0.1703,0.17,0.169,0.1778,0.1777,0.1777,0.1776,0,0.0774,0.0825,0.0873,0.0961,0.0992,0.1035,0.1154,0.1211,0.1325,0.1436,0.1486,0.1622,0.1731,0.1796,0.1866,0.1816,0.1836,0.1814,0.1857,0.1846,0.1688,0.168,0.1747,0.1745,0.1744,0.1743,0.1742,0,0.0752,0.0772,0.0865,0.0901,0.0948,0.1027,0.1083,0.1202,0.1274,0.1462,0.151,0.1661,0.1741,0.1798,0.1854,0.1878,0.184,0.1834,0.1727,0.1704,0.1688,0.1682,0.1676,0.174,0.1739,0.1739,0.1739,0,0.0711,0.0751,0.0791,0.0864,0.093,0.0996,0.1094,0.1135,0.1286,0.1401,0.1519,0.1587,0.1699,0.1756,0.18,0.1799,0.1836,0.1819,0.1819,0.1718,0.1696,0.168,0.1676,0.1734,0.1735,0.1735,0.1735,0,0.068,0.0701,0.0762,0.0821,0.0898,0.0954,0.1006,0.1105,0.1186,0.1387,0.1425,0.1576,0.1695,0.1717,0.1758,0.1769,0.1716,0.1638,0.1647,0.1653,0.1586,0.1542,0.1541,0,0,0,0,0,0.0648,0.0671,0.0718,0.0782,0.0856,0.0903,0.1013,0.1071,0.1214,0.1269,0.1345,0.1445,0.153,0.1599,0.1587,0.1693,0.1709,0.1671,0.1619,0.1708,0.1713,0.1643,0,0,0,0,0,0,0.0628,0.0669,0.0697,0.0742,0.0775,0.0852,0.0917,0.1007,0.1044,0.1191,0.1244,0.136,0.1455,0.1525,0.156,0.158,0.1519,0.1759,0.1756,0.1705,0.171,0.1714,0.1643,0,0,0,0,0]},{"header":{"parameterUnit":"m.s-1","parameterCategory":2,"la1":30.2991,"la2":30.254,"lo1":-89.0895,"lo2":-89.0444,"dy":0.0017,"dx":0.0017,"nx":28,"ny":28,"refTime":"2025-11-07T03:00:00:Z","depth":"4","parameterNumber":3,"parameterNumberName":"V-component_of_CURRENTS"},"data":[0,0,0,0,0,0,0,0,0,0,0,0,0,0,0,0,0,0,0,0,0,0,0,0,0,0,0,0,0,0,0,0,0,0,0,0,0,0,0,0,0,0,0,0,0,0,0,0,0,0,0,0,0,0,0,0,0,0,0.0041,0.004,0,-0.0015,-0.0016,-0.0016,-0.0054,-0.0054,-0.0054,-0.0055,-0.0114,-0.0116,-0.0117,0,0,0,0,0,0,0,0,0,0,0,0,0,0.0093,0.0092,0.0041,0.004,0.0039,-0.0015,-0.0016,-0.0017,-0.0054,-0.0054,-0.0054,-0.0055,-0.0114,-0.0116,-0.0117,0,0,0,0,0,0,0,0,0,0,0,0,0,0.0056,0.0092,0.0041,0.0015,0.0012,-0.0015,-0.0016,-0.0017,-0.0054,-0.0054,-0.0054,-0.0055,-0.0113,-0.0116,-0.0118,-0.0126,0,0,-0.0124,-0.0125,0,0,0,0,0,0,0,0,0.0058,0.0054,0.0019,0.0017,0.0014,-0.0027,-0.0019,-0.0053,-0.0054,-0.003,-0.0055,-0.0055,-0.0085,-0.0089,-0.0101,-0.0129,-0.0132,-0.0124,-0.0126,-0.0127,-0.0127,0,0,0,0,0,0,0,0.0061,0.0056,0.0017,0.0019,0.0015,-0.0001,-0.0006,-0.0026,-0.0056,-0.0032,-0.0035,-0.0039,-0.0086,-0.0099,-0.0102,-0.0133,-0.0124,-0.0126,-0.0128,-0.0129,-0.0178,-0.0178,0,0,0,0,0,0,0.0072,0.0059,0.0019,0.0016,0.0037,-0.0001,-0.0007,-0.0015,-0.0056,-0.0062,-0.0039,-0.004,-0.0095,-0.01,-0.0105,-0.0103,-0.0127,-0.0129,-0.013,-0.0178,-0.0178,-0.0178,0,0,0,0,0,0,0.0073,0.0068,0.0021,0.0037,0.003,-0.0002,-0.0009,-0.0015,-0.0029,-0.0061,-0.0067,-0.0046,-0.0095,-0.0102,-0.0124,-0.0106,-0.013,-0.0132,-0.0178,-0.0178,-0.0178,-0.0109,0,0,0,0,0,0,0.0075,0.0069,0.0068,0.0038,0.003,0.0014,-0.0009,-0.0016,-0.0031,-0.0034,-0.0069,-0.0075,-0.0096,-0.0121,-0.0126,-0.011,-0.0133,-0.0178,-0.0178,-0.0178,-0.0112,-0.0107,-0.0103,0,0,0,0,0,0.0077,0.0082,0.0068,0.0063,0.0029,0.0014,0.0009,-0.0016,-0.003,-0.003,-0.0061,-0.0074,-0.0125,-0.0123,-0.0129,-0.0113,-0.0178,-0.0178,-0.0178,-0.0114,-0.0108,-0.0103,0,0,0,0,0,0,0.0104,0.0078,0.0062,0.0058,0.004,0.0009,0.0007,-0.0014,-0.0038,-0.0043,-0.0077,-0.0084,-0.01,-0.012,-0.0117,-0.0129,-0.0152,-0.0154,-0.0101,-0.0096,-0.0092,-0.0054,-0.0135,0,0,0,0,0,0.0109,0.0107,0.0077,0.0076,0.0067,0.0035,0.0025,0.0008,-0.0017,-0.0029,-0.0055,-0.0083,-0.0105,-0.0111,-0.0138,-0.0141,-0.0171,-0.0136,-0.0132,-0.0128,-0.0103,-0.013,-0.0125,-0.0178,-0.0178,-0.0178,0,0,0.0121,0.0106,0.0105,0.0082,0.0064,0.0071,0.0029,0.0019,0.003,-0.003,-0.0029,-0.0073,-0.0106,-0.0114,-0.0121,-0.0126,-0.0138,-0.0128,-0.0124,-0.0101,-0.0129,-0.0124,-0.0119,-0.0178,-0.0178,-0.0178,0,0,0.0155,0.0128,0.0142,0.0131,0.011,0.0094,0.0093,0.0061,0.0052,0.004,-0.0001,-0.0031,-0.0063,-0.0079,-0.0091,-0.0079,-0.0121,-0.0095,-0.003,-0.0057,-0.0053,-0.0049,-0.0113,-0.0116,-0.0083,-0.0083,-0.0083,0,0.0172,0.0182,0.0145,0.0158,0.0161,0.0111,0.0134,0.012,0.0086,0.0084,0.0052,-0.0,-0.0038,-0.0033,-0.0035,-0.0064,-0.0103,-0.0044,-0.0049,-0.0046,-0.0043,-0.011,-0.0113,-0.008,-0.008,-0.008,-0.0081,0,0.0219,0.0227,0.0235,0.0239,0.0236,0.0244,0.0223,0.0216,0.019,0.0171,0.0153,0.0093,0.0066,0.0043,0.0009,0.0014,-0.0032,-0.0047,-0.0055,-0.0033,-0.0107,-0.0111,-0.0075,-0.0076,-0.0077,-0.0078,0,0,0.0257,0.0268,0.0272,0.0288,0.0279,0.0282,0.0305,0.0308,0.0317,0.0278,0.0285,0.0239,0.019,0.0173,0.0117,0.0097,0.0059,0.0041,0.0037,-0.0012,-0.0032,-0.0065,-0.0075,0.0041,0.0042,0.0042,-0.0104,0,0.0307,0.0351,0.0348,0.0396,0.0413,0.0391,0.0416,0.041,0.0384,0.0371,0.0322,0.0291,0.0246,0.021,0.0192,0.0076,0.0055,0.0098,-0.0055,-0.006,-0.0082,-0.0077,0.0044,-0.0107,-0.0109,-0.0109,-0.011,0,0.0353,0.0377,0.0432,0.0467,0.0474,0.05,0.0517,0.053,0.0507,0.0481,0.0454,0.039,0.0339,0.0294,0.0168,0.0192,0.0103,0.0025,0.0017,-0.003,-0.01,-0.0129,-0.0119,-0.0118,-0.0118,-0.0117,-0.0116,0,0.0382,0.0435,0.0483,0.0494,0.0525,0.0553,0.0568,0.0562,0.056,0.0534,0.0498,0.0455,0.0375,0.0301,0.0123,0.0144,-0.0036,-0.0032,-0.0135,-0.0142,-0.0098,-0.01,-0.0083,-0.0083,-0.0083,-0.0082,-0.0082,0,0.0423,0.0459,0.0501,0.0522,0.0574,0.0588,0.0625,0.0626,0.0613,0.0594,0.0546,0.0492,0.0371,0.0242,0.0135,-0.004,-0.0031,-0.0118,-0.0167,-0.0074,-0.0071,-0.0104,-0.0104,-0.0088,-0.0087,-0.0085,-0.0085,0,0.0427,0.0461,0.0509,0.0563,0.0582,0.0611,0.0642,0.065,0.0639,0.0604,0.0586,0.0483,0.0323,0.0183,0.0005,-0.0064,-0.0202,-0.026,-0.019,-0.0236,-0.0288,-0.0284,-0.0359,-0.0361,-0.0363,-0.0364,-0.0365,0,0.0426,0.0453,0.052,0.054,0.0563,0.0608,0.0626,0.0651,0.0645,0.0586,0.0552,0.0406,0.0323,0.0046,-0.0085,-0.0283,-0.0296,-0.037,-0.0263,-0.0269,-0.031,-0.0303,-0.0296,-0.0368,-0.0369,-0.0369,-0.0369,0,0.0411,0.0437,0.0469,0.051,0.0543,0.0584,0.0613,0.0614,0.0619,0.0607,0.0515,0.0393,0.0204,0.0036,-0.0145,-0.0274,-0.0314,-0.0388,-0.0383,-0.0282,-0.0281,-0.0319,-0.031,-0.0376,-0.0375,-0.0374,-0.0374,0,0.0379,0.039,0.0427,0.0461,0.0502,0.0534,0.0573,0.057,0.0576,0.0537,0.0496,0.0336,0.0248,0.0034,-0.0129,-0.0267,-0.026,-0.0265,-0.0266,-0.0261,-0.0175,-0.0156,-0.0246,0,0,0,0,0,0.0334,0.0337,0.0369,0.0409,0.0454,0.0488,0.0537,0.0573,0.0588,0.0531,0.0527,0.037,0.0149,0.0046,-0.0092,-0.016,-0.0301,-0.0327,-0.031,-0.0409,-0.0402,-0.0318,0,0,0,0,0,0,0.0294,0.0315,0.0343,0.0356,0.0382,0.0432,0.0475,0.0502,0.0486,0.0489,0.0374,0.0341,0.012,0.022,-0.0098,-0.0142,-0.0145,-0.0425,-0.0428,-0.0413,-0.0407,-0.0401,-0.0313,0,0,0,0,0]}]]